Flag for Switzerland Weather past 2 weeks in Chur, Graubünden, Switzerland

Now
57 °F

Cool.


Feels Like: 57 °F
Forecast: 47 / 75 °F
Wind: 3 mph from Northeast

Location: Chur-Ems

Current Time: Sep 23, 2014 at 8:38:56 PM

Latest Report: Sep 23, 2014 at 7:00 PM


Visibility: N/A

Pressure: 30.00 "Hg

Humidity: 62%

Dew point: 44 °F

Location of ChurLocation

Historic Weather in Chur — Graph

°F

Chur temperature yesterday

Maximum temperature yesterday: 62 °F (at 4:00 PM)
Minimum temperature yesterday: 49 °F (at 11:00 PM)
Average temperature yesterday: 55 °F

Past Weeks' High & Low Weather Summary

 TemperatureHumidityPressure
High75 °F (Sep 18, 12:00 PM)96% (Sep 12, 6:00 AM)30.24 "Hg (Sep 12, 6:00 AM)
Low42 °F (Sep 23, 8:00 AM)41% (Sep 18, 12:00 PM)29.85 "Hg (Sep 18, 12:00 PM)
Average60 °F76%30.01 "Hg
* Reported Sep 8 7:00 PM — Sep 23 7:00 PM, Chur, Weather by CustomWeather, © 2014

Note: Actual official high and low records may vary slightly from our data, if they occured in-between our weather recording intervals... More about our weather records

Advertising

Chur weather history for previous 24 hours

 ConditionsComfort  
Time TempWeatherWind HumidityBarometerVisibility
7:00 PM
Sep 23
57 °FCool.3 mph62%30.00 "HgN/A
6:00 PM60 °FRefreshingly cool.6 mph55%29.97 "HgN/A
5:00 PM62 °FSunny.10 mph47%29.97 "Hg12 mi
4:00 PM62 °FMild.10 mph47%29.98 "HgN/A
3:00 PM63 °FMild.10 mph47%30.00 "HgN/A
2:00 PM63 °FSunny.3 mph42%30.04 "Hg16 mi
1:00 PM60 °FRefreshingly cool.1 mph43%30.08 "HgN/A
12:00 PM58 °FRefreshingly cool.5 mph51%30.13 "HgN/A
11:00 AM54 °FPassing clouds.3 mph54%30.18 "Hg12 mi
10:00 AM50 °FCool.5 mph64%30.21 "HgN/A
9:00 AM44 °FQuite cool.3 mph82%30.24 "HgN/A
8:00 AM42 °FFog.3 mph86%30.24 "Hg9 mi
7:00 AM42 °FQuite cool.6 mph87%30.23 "HgN/A
6:00 AM43 °FQuite cool.2 mph90%30.22 "HgN/A
5:00 AM44 °FFog.No wind87%30.21 "Hg6 mi
4:00 AM42 °FQuite cool.No wind93%30.21 "HgN/A
3:00 AM44 °FQuite cool.1 mph86%30.21 "HgN/A
2:00 AM45 °FFog.1 mph86%30.19 "Hg5 mi
1:00 AM48 °FCool.6 mph81%30.16 "HgN/A
12:00 AM46 °FCool.3 mph89%30.18 "HgN/A
11:00 PM
Sep 22
49 °FFog.6 mph76%30.17 "Hg7 mi
10:00 PM50 °FCool.8 mph76%30.18 "HgN/A
9:00 PM50 °FCool.9 mph77%30.16 "HgN/A
8:00 PM51 °FLight rain. Overcast.9 mph82%30.15 "Hg3 mi
Weather by CustomWeather, © 2014

See weather overviewHow to use our weather pages